KJ4AJP Weather Reports


time (UTC)temp
F
wind
direction
speed
knots
gust
knots
rain 1hr
in
rain 24hr
in
rain mn
in
humidity
%
barometer
mb
20260506173549 57 52 0.0 0.9 0.00 0.13 0.13 77 1015.3
20260506173046 58 69 0.9 0.9 0.00 0.13 0.13 75 1015.4
20260506172543 58 64 0.0 0.0 0.00 0.13 0.13 77 1015.1
20260506172039 58 49 0.0 0.0 0.00 0.13 0.13 77 1015.0
20260506171537 57 39 0.9 0.9 0.00 0.13 0.13 79 1014.8
20260506171034 56 41 0.9 0.9 0.00 0.13 0.13 81 1015.1
20260506170532 56 40 0.0 0.9 0.00 0.13 0.13 80 1015.1
20260506170029 56 51 0.0 0.0 0.00 0.13 0.13 80 1014.9
20260506165528 56 57 0.0 0.0 0.00 0.13 0.13 80 1014.9
20260506165023 57 37 0.9 1.7 0.00 0.13 0.13 78 1015.0
20260506164520 57 41 0.9 0.9 0.00 0.13 0.13 78 1015.0
20260506164018 57 33 0.9 0.9 0.00 0.13 0.13 77 1015.0
20260506163514 57 40 0.9 0.9 0.00 0.13 0.13 77 1014.6
20260506163010 57 73 0.9 1.7 0.00 0.13 0.13 77 1014.5
20260506162506 57 47 0.9 1.7 0.00 0.13 0.13 78 1014.6
20260506162003 57 39 1.7 1.7 0.00 0.13 0.13 77 1014.5
20260506161501 56 55 0.9 0.9 0.00 0.13 0.13 77 1014.3
20260506160958 56 17 0.9 0.9 0.00 0.13 0.13 78 1014.5
20260506160455 56 56 0.0 0.0 0.00 0.13 0.13 78 1014.7
20260506155952 56 46 0.0 0.9 0.00 0.13 0.13 79 1014.8
20260506155450 55 62 0.0 0.9 0.00 0.13 0.13 81 1014.9
20260506153616 55 53 0.0 0.0 0.00 0.13 0.13 81 1015.1
20260506153114 54 56 0.0 0.0 0.00 0.13 0.13 81 1015.2
20260506152611 54 42 0.0 0.0 0.00 0.13 0.13 82 1015.6
20260506152109 54 47 0.0 0.0 0.00 0.13 0.13 81 1015.3
20260506151607 54 52 0.0 0.0 0.00 0.13 0.13 82 1015.0
20260506151103 54 55 0.0 0.0 0.00 0.13 0.13 82 1014.7
20260506150600 54 54 0.0 0.0 0.00 0.13 0.13 81 1014.7
20260506150057 53 54 0.0 0.0 0.00 0.13 0.13 83 1014.8
20260506145554 53 37 0.9 0.9 0.00 0.13 0.13 82 1014.8
20260506145051 53 58 0.9 0.9 0.00 0.13 0.13 83 1014.7
20260506144548 52 41 0.0 0.0 0.00 0.13 0.13 85 1014.7
20260506144045 51 36 1.7 1.7 0.00 0.13 0.13 85 1014.4
20260506143543 51 40 0.9 1.7 0.00 0.13 0.13 84 1014.4
20260506143041 51 37 0.9 1.7 0.00 0.13 0.13 86 1014.2
20260506142538 51 60 0.0 0.0 0.00 0.13 0.13 86 1014.6
20260506142037 51 55 0.0 0.0 0.00 0.13 0.13 86 1014.4
20260506141534 50 54 0.0 0.0 0.00 0.13 0.13 87 1014.2
20260506141032 50 53 0.0 0.0 0.00 0.13 0.13 87 1014.2
20260506140529 50 53 0.0 0.0 0.00 0.13 0.13 87 1013.8
20260506140026 50 56 0.0 0.9 0.00 0.13 0.13 88 1013.8
20260506135523 50 71 1.7 2.6 0.00 0.13 0.13 89 1013.9
20260506135019 50 59 0.0 0.0 0.00 0.13 0.13 89 1013.7
20260506134515 50 52 0.0 0.0 0.00 0.13 0.13 89 1013.7
20260506134012 50 68 0.9 0.9 0.00 0.13 0.13 89 1013.5
20260506133509 49 55 0.0 0.0 0.00 0.13 0.13 90 1013.5
20260506133006 49 45 0.0 0.9 0.00 0.13 0.13 90 1013.5
20260506132503 49 42 0.9 0.9 0.00 0.13 0.13 91 1013.2
20260506132000 49 45 0.0 0.0 0.00 0.13 0.13 91 1013.2
20260506131457 49 51 0.9 1.7 0.00 0.13 0.13 91 1013.0
20260506130954 49 351 0.9 0.9 0.00 0.13 0.13 92 1013.3
20260506130450 49 67 0.9 0.9 0.00 0.13 0.13 92 1013.4
20260506125948 48 46 0.0 0.9 0.00 0.13 0.13 92 1013.4
20260506125446 48 42 0.9 0.9 0.00 0.13 0.13 92 1013.0
20260506124944 48 65 0.9 0.9 0.00 0.13 0.13 94 1013.2
20260506124441 48 66 0.0 0.9 0.00 0.13 0.13 95 1012.6
20260506123939 48 77 0.9 0.9 0.00 0.13 0.13 96 1012.7
20260506123437 48 44 0.9 0.9 0.00 0.13 0.13 96 1012.7
20260506122934 48 56 0.9 0.9 0.00 0.13 0.13 96 1012.2
20260506122431 48 56 0.0 0.0 0.00 0.13 0.13 97 1012.3
20260506121929 48 57 0.0 0.0 0.00 0.13 0.13 97 1011.9
20260506121426 49 42 0.0 0.9 0.00 0.13 0.13 97 1012.0
20260506120923 49 82 0.0 0.0 0.00 0.13 0.13 97 1012.1
20260506120420 49 55 0.0 0.0 0.00 0.13 0.13 97 1012.1
20260506115917 49 50 0.0 0.0 0.00 0.13 0.13 97 1011.9
20260506115415 49 40 0.9 0.9 0.00 0.13 0.13 97 1011.9
20260506114914 49 41 0.9 0.9 0.00 0.13 0.13 97 1012.1
20260506114411 49 53 0.0 0.0 0.00 0.13 0.13 97 1011.8
20260506113910 49 45 0.0 0.0 0.00 0.13 0.13 97 1012.0
20260506113407 49 62 1.7 1.7 0.00 0.13 0.13 97 1011.7
20260506112903 50 51 0.0 0.0 0.00 0.13 0.13 97 1012.1
20260506112401 50 56 0.0 0.0 0.00 0.13 0.13 98 1011.9
20260506111858 50 44 0.0 0.0 0.00 0.13 0.13 98 1011.9
20260506111356 49 56 0.0 0.0 0.00 0.13 0.13 98 1011.7
20260506110853 50 59 0.0 0.0 0.00 0.13 0.13 98 1011.9
20260506110350 50 59 0.9 0.9 0.00 0.13 0.13 98 1011.9
20260506105847 50 68 0.9 0.9 0.00 0.13 0.13 98 1011.8
20260506105343 50 58 0.0 0.0 0.00 0.13 0.13 98 1011.5
20260506104841 50 55 0.0 0.0 0.00 0.13 0.13 98 1011.9
20260506104338 50 55 0.0 0.0 0.00 0.13 0.13 98 1011.8
20260506103836 50 54 0.0 0.0 0.00 0.13 0.13 98 1011.7
20260506103333 50 58 0.0 0.0 0.00 0.13 0.13 98 1011.4
20260506102831 50 59 0.0 0.0 0.00 0.13 0.13 98 1011.2
20260506102328 50 55 0.0 0.0 0.00 0.13 0.13 98 1011.3
20260506101825 50 51 0.0 0.0 0.00 0.13 0.13 98 1011.1
20260506101321 50 57 0.0 0.0 0.00 0.13 0.13 98 1010.8
20260506100820 50 60 0.0 0.0 0.00 0.13 0.13 98 1011.0
20260506100318 50 55 0.0 0.0 0.00 0.13 0.13 98 1011.0
20260506095816 50 38 0.0 0.0 0.00 0.13 0.13 98 1011.1
20260506095312 50 52 0.0 0.0 0.00 0.13 0.13 98 1011.2
20260506094809 50 48 0.0 0.0 0.00 0.13 0.13 98 1010.9
20260506094308 50 51 0.0 0.0 0.00 0.13 0.13 98 1011.0
20260506093805 50 48 0.9 0.9 0.00 0.13 0.13 98 1010.6
20260506093302 50 57 0.0 0.9 0.00 0.13 0.13 98 1011.0
20260506092800 50 47 0.0 0.9 0.00 0.13 0.13 98 1010.8
20260506092258 51 47 0.0 0.0 0.00 0.13 0.13 98 1010.7
20260506091755 51 63 0.0 0.9 0.00 0.13 0.13 98 1010.8
20260506091252 51 39 0.0 0.9 0.00 0.13 0.13 98 1010.5
20260506090750 51 38 1.7 1.7 0.00 0.13 0.13 98 1010.5
20260506090247 50 44 0.0 0.0 0.00 0.13 0.13 98 1009.9
20260506085744 50 39 0.9 0.9 0.00 0.13 0.13 98 1010.0
20260506085240 50 40 0.0 0.0 0.00 0.13 0.13 98 1010.0
20260506084736 50 54 0.0 0.9 0.00 0.13 0.13 98 1009.8
20260506084233 50 52 0.0 0.0 0.00 0.13 0.13 98 1009.6
20260506083730 50 63 0.0 0.0 0.00 0.13 0.13 98 1009.7
20260506083228 50 47 0.0 0.9 0.07 0.13 0.13 98 1009.9
20260506082725 50 46 0.9 0.9 0.07 0.13 0.13 98 1010.1
20260506082220 50 64 0.0 0.0 0.00 0.12 0.12 98 1010.0
20260506081718 50 44 0.0 0.0 0.00 0.12 0.12 98 1009.6
20260506081215 50 44 0.9 0.9 0.00 0.12 0.12 98 1009.5
20260506080714 50 57 0.0 0.9 0.00 0.12 0.12 98 1009.9
20260506080210 50 83 0.9 0.9 0.00 0.12 0.12 98 1009.6
20260506073154 51 24 1.7 2.6 0.00 0.12 0.12 98 1009.8
20260506072650 51 29 0.9 2.6 0.00 0.12 0.12 98 1009.6
20260506072148 51 70 0.9 0.9 0.07 0.12 0.12 98 1010.4
20260506071645 51 45 0.0 0.9 0.07 0.12 0.12 98 1009.6
20260506071143 51 58 0.0 0.0 0.00 0.11 0.11 98 1009.9
20260506070640 51 54 0.0 0.0 0.00 0.11 0.11 98 1010.0
20260506070137 51 42 0.9 0.9 0.00 0.11 0.11 98 1009.9
20260506062114 52 53 0.0 0.0 0.00 0.08 0.08 98 1008.9
20260506061610 52 47 0.9 0.9 0.24 0.08 0.08 98 1008.7
20260506061108 52 43 0.0 0.0 0.24 0.08 0.08 98 1009.2
20260506060606 52 77 0.9 1.7 0.12 0.05 0.05 98 1009.1
20260506051035 53 70 0.9 0.9 0.00 0.00 0.00 97 1008.1
20260506050533 53 75 0.0 0.0 0.00 0.00 0.00 98 1008.5
20260506045023 53 45 0.9 0.9 0.00 1.01 1.01 97 1008.4
20260506044521 54 42 0.9 0.9 0.00 1.01 1.01 97 1008.3
20260506044018 54 58 0.0 0.9 0.07 1.01 1.01 97 1008.1
20260506043515 54 44 0.9 0.9 0.14 1.01 1.01 97 1008.2
20260506043013 54 53 0.0 0.0 0.19 1.00 1.00 96 1008.0
20260506042512 55 76 0.9 0.9 0.59 0.99 0.99 96 1008.1
20260506042010 57 64 0.0 0.0 0.66 0.98 0.98 96 1008.4
20260506041508 57 33 1.7 1.7 0.66 0.89 0.89 96 1008.4
20260506041004 58 58 0.0 0.0 0.59 0.86 0.86 96 1008.0
20260506040502 58 41 0.9 0.9 0.54 0.80 0.80 96 1007.9
20260506035958 59 72 0.0 0.0 0.42 0.76 0.76 96 1007.7
20260506035455 60 35 0.9 0.9 0.19 0.72 0.72 95 1008.3
20260506034951 60 49 0.0 0.9 0.07 0.70 0.70 95 1007.5
20260506034449 62 46 0.9 0.9 0.05 0.69 0.69 94 1007.5
20260506033946 63 12 1.7 1.7 0.12 0.69 0.69 95 1007.6
20260506033444 65 348 0.9 1.7 0.31 0.68 0.68 95 1007.5
20260506032940 66 24 0.9 1.7 1.13 0.67 0.67 96 1007.2
20260506032437 66 32 1.7 1.7 0.97 0.64 0.64 95 1006.5
20260506031933 66 49 0.0 0.0 0.12 0.49 0.49 95 1007.3
20260506031431 66 261 1.7 2.6 0.07 0.48 0.48 94 1006.4
20260506030929 66 33 0.9 1.7 0.00 0.47 0.47 95 1006.2
20260506030427 66 47 0.9 0.9 0.00 0.47 0.47 96 1006.3
20260506025923 65 277 2.6 5.2 0.00 0.47 0.47 96 1006.4
20260506025420 65 51 0.9 0.9 0.00 0.47 0.47 96 1006.0
20260506024917 65 257 1.7 2.6 0.00 0.47 0.47 97 1006.1
20260506024414 65 43 2.6 2.6 0.00 0.47 0.47 97 1006.2
20260506023909 65 79 0.9 0.9 0.00 0.47 0.47 97 1006.0
20260506023407 64 249 0.9 1.7 0.00 0.47 0.47 97 1006.3
20260506022903 64 56 0.0 0.0 0.00 0.47 0.47 97 1006.2
20260506022401 64 55 0.0 0.9 0.00 0.47 0.47 97 1006.3
20260506021859 64 57 0.0 0.9 0.00 0.47 0.47 97 1006.2
20260506021355 64 71 0.9 0.9 0.00 0.47 0.47 97 1006.3
20260506020852 64 30 1.7 1.7 0.00 0.47 0.47 98 1006.3
20260506020350 64 65 0.9 0.9 0.00 0.47 0.47 98 1006.2
20260506015847 64 17 0.9 0.9 0.00 0.47 0.47 98 1006.3
20260506015345 64 30 0.9 1.7 0.00 0.47 0.47 98 1006.1
20260506014841 64 62 0.0 0.0 0.00 0.47 0.47 98 1006.2
20260506014338 64 331 0.9 0.9 0.00 0.47 0.47 98 1006.3
20260506013835 64 36 0.0 0.0 0.00 0.47 0.47 98 1006.1
20260506013333 64 58 1.7 1.7 0.00 0.47 0.47 98 1005.9
20260506012829 64 6 0.0 0.0 0.00 0.47 0.47 98 1006.0
20260506012326 64 301 1.7 1.7 0.00 0.47 0.47 98 1006.4
20260506011823 64 38 0.0 0.9 0.00 0.47 0.47 98 1006.4
20260506011320 63 302 1.7 1.7 0.00 0.47 0.47 98 1006.2
20260506010817 63 38 0.9 0.9 0.00 0.47 0.47 98 1006.0
20260506010315 63 57 0.0 0.9 0.00 0.47 0.47 98 1006.0
20260506005812 63 61 0.0 0.0 0.00 0.47 0.47 98 1006.1
20260506005308 63 84 0.9 1.7 0.00 0.47 0.47 98 1006.1
20260506004805 63 56 0.0 0.0 0.00 0.47 0.47 98 1006.0
20260506004302 63 54 0.0 0.0 0.05 0.47 0.47 98 1006.2
20260506003759 63 279 1.7 1.7 0.05 0.47 0.47 98 1006.2
20260506003255 63 81 0.9 1.7 0.00 0.46 0.46 98 1006.4
20260506002751 63 61 0.0 0.9 0.00 0.46 0.46 98 1006.4
20260506002247 63 49 0.0 0.0 0.07 0.46 0.46 98 1006.7
20260506001743 63 58 0.0 0.0 0.07 0.46 0.46 98 1006.5
20260506001241 63 61 0.0 0.9 0.00 0.45 0.45 98 1006.4
20260506000737 63 45 0.0 0.9 0.00 0.45 0.45 98 1006.5
20260506000235 63 38 0.0 0.9 0.00 0.45 0.45 98 1006.4
20260505235732 63 45 0.0 0.0 0.00 0.45 0.45 98 1006.4
20260505235230 63 31 0.9 1.7 0.00 0.45 0.45 98 1006.5
20260505234726 63 68 0.0 0.9 0.05 0.45 0.45 98 1006.6
20260505234224 63 53 0.9 1.7 0.05 0.45 0.45 98 1006.9
20260505233720 63 67 0.0 0.0 0.00 0.44 0.44 98 1006.9
20260505233218 63 123 1.7 1.7 0.00 0.44 0.44 98 1006.9
20260505232715 63 323 0.9 1.7 0.00 0.44 0.44 97 1006.9
20260505232213 63 36 0.0 0.9 0.00 0.44 0.44 97 1006.9
20260505231709 63 44 1.7 1.7 0.00 0.44 0.44 97 1006.9
20260505231208 63 65 0.9 1.7 0.00 0.44 0.44 97 1006.9
20260505230706 63 145 0.9 2.6 0.00 0.44 0.44 97 1007.2
20260505230202 63 79 0.9 1.7 0.00 0.44 0.44 97 1007.4
20260505225659 63 37 0.0 0.9 0.00 0.44 0.44 97 1007.0
20260505225155 64 277 1.7 2.6 0.07 0.44 0.44 97 1007.0
20260505224651 63 301 3.5 3.5 0.07 0.44 0.44 97 1006.9
20260505224149 63 54 0.9 1.7 0.00 0.43 0.43 97 1007.0
20260505223646 64 26 0.9 0.9 0.05 0.43 0.43 97 1007.2
20260505223142 64 11 0.9 0.9 0.05 0.43 0.43 97 1007.2
20260505222638 63 153 1.7 2.6 0.00 0.42 0.42 97 1007.4
20260505222135 63 346 1.7 1.7 0.00 0.42 0.42 97 1007.4
20260505221632 63 12 1.7 2.6 0.07 0.42 0.42 97 1007.5
20260505221128 63 223 1.7 5.2 0.07 0.42 0.42 97 1007.7
20260505220626 63 236 2.6 3.5 0.05 0.41 0.41 97 1007.5
20260505220124 63 317 1.7 1.7 0.05 0.41 0.41 97 1007.4
20260505215621 63 38 1.7 2.6 0.00 0.40 0.40 97 1007.7
20260505215119 63 330 0.9 1.7 0.00 0.40 0.40 97 1007.6
20260505214617 63 47 1.7 2.6 0.07 0.40 0.40 97 1007.5
20260505214114 63 34 0.9 0.9 0.07 0.40 0.40 97 1007.7
20260505213611 63 299 1.7 2.6 0.00 0.39 0.39 97 1007.5
20260505213108 63 339 1.7 2.6 0.05 0.39 0.39 97 1007.7
20260505212604 63 57 0.0 0.0 0.05 0.39 0.39 97 1007.6
20260505212102 63 336 2.6 2.6 0.07 0.38 0.38 97 1007.5
20260505211558 63 68 0.9 0.9 0.07 0.38 0.38 96 1007.6
20260505211055 63 253 3.5 6.1 0.07 0.37 0.37 96 1007.6
20260505210551 63 76 2.6 2.6 0.07 0.37 0.37 96 1008.0
20260505210049 63 278 2.6 7.0 0.05 0.36 0.36 96 1007.7
20260505205547 63 42 2.6 3.5 0.05 0.36 0.36 95 1007.8
20260505205044 64 18 1.7 3.5 0.00 0.35 0.35 95 1007.8
20260505204541 64 332 1.7 1.7 0.00 0.35 0.35 95 1007.6
20260505204038 64 128 0.9 1.7 0.00 0.35 0.35 94 1007.7
20260505203535 64 225 3.5 5.2 0.00 0.35 0.35 94 1007.6
20260505203032 64 14 1.7 1.7 0.00 0.35 0.35 94 1007.6
20260505202528 64 289 2.6 3.5 0.00 0.35 0.35 94 1007.7
20260505202024 64 114 0.9 1.7 0.00 0.35 0.35 94 1007.9
20260505201521 64 70 1.7 2.6 0.00 0.35 0.35 94 1007.8
20260505201019 64 264 1.7 6.1 0.00 0.35 0.35 95 1007.5
20260505200517 64 256 2.6 3.5 0.00 0.35 0.35 95 1007.8
20260505200013 64 296 1.7 2.6 0.00 0.35 0.35 94 1007.7
20260505195509 65 66 0.9 0.9 0.07 0.35 0.35 94 1007.6
20260505195007 65 147 0.9 2.6 0.12 0.35 0.35 93 1007.7
20260505194504 65 71 1.7 1.7 0.12 0.34 0.34 93 1007.7
20260505194004 66 226 0.9 1.7 0.07 0.33 0.33 93 1007.6
20260505193502 66 4 1.7 2.6 0.00 0.32 0.32 92 1007.6
20260505192959 66 1 4.3 5.2 0.00 0.32 0.32 91 1007.6
20260505192458 66 29 1.7 1.7 0.00 0.32 0.32 91 1007.9
20260505191954 66 69 0.9 0.9 0.00 0.32 0.32 91 1007.8
20260505191453 66 336 2.6 3.5 0.00 0.32 0.32 91 1008.1
20260505190950 65 35 0.0 0.9 0.00 0.32 0.32 91 1007.7
20260505190445 65 77 1.7 1.7 0.00 0.32 0.32 92 1008.0
20260505185940 65 152 1.7 1.7 0.00 0.32 0.32 92 1008.1
20260505185438 65 189 1.7 1.7 0.00 0.32 0.32 93 1008.3
20260505184934 64 98 1.7 2.6 0.00 0.32 0.32 95 1008.0
20260505184431 64 35 0.0 0.9 0.00 0.32 0.32 95 1008.1
20260505183928 64 74 0.0 0.9 0.00 0.32 0.32 95 1008.1
20260505183425 63 88 1.7 1.7 0.00 0.32 0.32 95 1008.4
20260505182921 63 41 0.9 0.9 0.00 0.32 0.32 95 1008.5
20260505182418 63 260 1.7 2.6 0.00 0.32 0.32 95 1008.7
20260505181915 63 64 0.9 0.9 0.05 0.32 0.32 94 1008.9
20260505181412 63 53 1.7 1.7 0.05 0.32 0.32 94 1008.9
20260505180909 63 306 1.7 1.7 0.00 0.31 0.31 94 1009.1
20260505180405 63 24 0.0 0.9 0.07 0.31 0.31 94 1009.1
20260505175902 63 43 0.9 0.9 0.12 0.31 0.31 94 1009.0
20260505175358 63 167 0.0 0.0 0.17 0.30 0.30 94 1009.2
20260505174854 63 352 0.0 0.9 0.12 0.29 0.29 93 1009.2
20260505174352 63 68 0.9 0.9 0.12 0.28 0.28 93 1009.1